Weather in Marhamat

Uzbekistan     40°30′13″N   72°20′00″E
temp.,
°C
wind,
m/s
gust,
m/s
humid.,
%
clouds,
%
prec.,
mm/h
press.,
hPa
HPBL,
m
11 may, tue
tue1123:00+20ene116380 0.5 101016
02:00+19e2268100 0.6 101031
05:00+18wsw2366100 0.6 101255
08:00+20w6753100 0.1 1014715
11:00+22w6846100 0.5 10141173
14:00+24wsw3638100 0.1 10132009
17:00+26ssw363341 0.1 10132124
20:00+21s12481 0.0 101417
12 may, wed
wed1223:00+19ssw22385 0.0 101413
02:00+18sse223492 0.0 101312
05:00+17s223822 0.0 101311
08:00+21wsw57411 0.0 1014678
11:00+25w45330 0.0 10131707
14:00+28w35230 0.0 10102606
17:00+28w45130 0.0 10092753
20:00+21wsw24210 0.0 101039
13 may, thu
thu1323:00+17wsw01484 0.0 101315
02:00+17n11480 0.0 101114
05:00+15se11500 0.0 101111
08:00+21wnw22392 0.0 1012501
11:00+25nw32305 0.0 10101659
14:00+27nnw32220 0.0 10082606
17:00+27wnw111982 0.0 10072660
20:00+23s2226100 0.0 100911
14 may, fri
fri1423:00+20ssw4736100 0.0 1010151
02:00+20s2237100 0.0 101015
05:00+19ssw1140100 0.0 101111
08:00+22w2333100 0.0 1012598
11:00+25wnw3327100 0.0 10111401
14:00+28wnw222116 0.0 10082717
17:00+29sw221931 0.0 10082943
20:00+23s493381 0.0 1009147
15 may, sat
sat1523:00+21sse2233100 0.0 101011
02:00+20se1136100 0.0 100911
05:00+19s11377 0.0 100911
08:00+24wnw22300 0.0 1010514
11:00+27nw32250 0.0 10081662
14:00+30nw112013 0.0 10062793
17:00+30sw231999 0.0 10052931
20:00+24sse33306 0.0 100635